DW0307 Weather Reports


time (UTC)temp
F
wind
direction
speed
knots
gust
knots
rain 1hr
in
rain 24hr
in
rain mn
in
humidity
%
barometer
mb
20260505100051 73 244 17.4 27.8 0.00 0.00 0.00 31 1013.5
20260505094546 74 215 14.8 21.7 0.00 0.00 0.00 30 1013.5
20260505093050 72 192 13.9 22.6 0.00 0.00 0.00 33 1013.4
20260505091554 73 227 10.4 19.1 0.00 0.00 0.00 35 1013.6
20260505090059 71 240 11.3 19.1 0.00 0.00 0.00 36 1013.5
20260505084551 71 221 12.2 20.0 0.00 0.00 0.00 34 1013.6
20260505083046 70 246 12.2 22.6 0.00 0.00 0.00 37 1013.6
20260505081603 70 233 13.9 20.0 0.00 0.00 0.00 36 1013.8
20260505080050 72 182 8.7 25.2 0.00 0.00 0.00 36 1013.8
20260505074548 71 225 12.2 17.4 0.00 0.00 0.00 37 1013.9
20260505073058 70 227 12.2 16.5 0.00 0.00 0.00 37 1013.9
20260505071552 70 217 3.5 11.3 0.00 0.00 0.00 37 1014.1
20260505070053 68 172 6.1 13.9 0.00 0.00 0.00 39 1014.2
20260505064548 67 247 8.7 13.0 0.00 0.00 0.00 37 1014.1
20260505063052 66 244 9.6 14.8 0.00 0.00 0.00 39 1014.2
20260505061552 66 240 11.3 16.5 0.00 0.00 0.00 38 1014.3
20260505060050 65 227 9.6 13.9 0.00 0.00 0.00 40 1014.2
20260505054559 63 217 3.5 7.8 0.00 0.00 0.00 44 1014.3
20260505053054 61 210 4.3 13.0 0.00 0.00 0.00 43 1014.4
20260505051549 60 188 7.0 11.3 0.00 0.00 0.00 44 1014.4
20260505041554 49 219 5.2 7.8 0.00 0.00 0.00 61 1014.4
20260505040054 45 221 4.3 7.8 0.00 0.00 0.00 65 1014.5
20260505034550 43 191 5.2 7.0 0.00 0.00 0.00 67 1014.5
20260505033051 43 221 2.6 4.3 0.00 0.00 0.00 66 1014.4
20260505031552 43 204 4.3 6.1 0.00 0.00 0.00 66 1014.5
20260505030048 43 198 4.3 6.1 0.00 0.00 0.00 67 1014.5
20260505024547 42 252 3.5 7.0 0.00 0.00 0.00 68 1014.5
20260505023055 42 250 2.6 6.1 0.00 0.00 0.00 68 1014.5
20260505021549 42 259 1.7 6.1 0.00 0.00 0.00 67 1014.6
20260505020055 44 219 2.6 5.2 0.00 0.00 0.00 65 1014.7
20260505014550 43 250 1.7 7.0 0.00 0.00 0.00 66 1014.8
20260505013047 43 255 4.3 7.0 0.00 0.00 0.00 67 1014.8
20260505011554 43 219 3.5 6.1 0.00 0.00 0.00 68 1014.8
20260505010100 42 272 1.7 5.2 0.00 0.00 0.00 70 1014.9
20260505004552 42 268 3.5 6.1 0.00 0.00 0.00 68 1014.9
20260505003057 42 258 2.6 5.2 0.00 0.00 0.00 68 1015.2
20260505001550 42 259 1.7 2.6 0.00 0.00 0.00 68 1015.3
20260505000058 43 259 0.9 3.5 0.00 0.00 0.00 68 1015.3
20260504234553 42 259 2.6 3.5 0.00 0.00 0.00 69 1015.5
20260504233050 43 257 1.7 2.6 0.00 0.00 0.00 67 1015.6
20260504231552 42 257 1.7 3.5 0.00 0.00 0.00 69 1015.7
20260504230050 41 253 1.7 3.5 0.00 0.00 0.00 70 1015.8
20260504224549 42 235 1.7 4.3 0.00 0.00 0.00 68 1015.9
20260504223051 42 225 2.6 5.2 0.00 0.00 0.00 69 1015.9
20260504221551 42 253 4.3 6.1 0.00 0.00 0.00 68 1016.1
20260504220111 43 248 3.5 6.1 0.00 0.00 0.00 67 1016.1
20260504214552 44 242 3.5 7.0 0.00 0.00 0.00 65 1016.1
20260504213052 46 238 5.2 8.7 0.00 0.00 0.00 62 1016.1
20260504211555 44 236 7.0 8.7 0.00 0.00 0.00 65 1016.2
20260504210059 45 242 5.2 7.8 0.00 0.00 0.00 64 1016.2
20260504204549 46 242 4.3 7.0 0.00 0.00 0.00 60 1016.3
20260504203055 48 238 4.3 7.0 0.00 0.00 0.00 58 1016.3
20260504201547 48 247 6.1 8.7 0.00 0.00 0.00 57 1016.2
20260504200055 49 254 6.1 8.7 0.00 0.00 0.00 55 1016.2
20260504194549 51 246 7.0 10.4 0.00 0.00 0.00 52 1016.1
20260504193051 53 245 8.7 10.4 0.00 0.00 0.00 49 1016.2
20260504191557 54 248 8.7 10.4 0.00 0.00 0.00 47 1016.1
20260504190059 56 248 7.8 12.2 0.00 0.00 0.00 43 1016.0
20260504184609 61 239 9.6 15.6 0.00 0.00 0.00 37 1016.0
20260504183053 61 234 11.3 17.4 0.00 0.00 0.00 37 1015.8
20260504181549 59 232 8.7 11.3 0.00 0.00 0.00 40 1015.7
20260504180049 56 240 7.0 10.4 0.00 0.00 0.00 44 1015.6
20260504174547 59 232 5.2 8.7 0.00 0.00 0.00 42 1015.5
20260504173042 61 224 4.3 7.8 0.00 0.00 0.00 37 1015.5
20260504171549 65 234 5.2 7.0 0.00 0.00 0.00 34 1015.2